Location: Sevilla
(37.3933°N, 5.9839°W)
Time: 05:00:40
(UTC+02:00)

Tiros 1 despin weight - Pass Details

Date: 02 July 2024
Orbit: 576 x 620 km, 48.2° (Epoch: 22 July)

Event Time Altitude Azimuth Distance (km) Brightness Sun altitude
Rises 14:56:45 0° 305° (NW) 2,890 ? 74.3°
Reaches altitude 10° 14:59:19 10° 317° (NW) 1,986 ? 74.1°
Maximum altitude 15:03:20 29° 18° (NNE) 1,141 ? 73.7°
Drops below altitude 10° 15:07:19 10° 79° (E) 1,983 ? 73.3°
Sets 15:09:52 0° 91° (E) 2,885 ? 73.0°
